Home   Weather   Auxerre   Past weeks

Flag for France Past Weather in Auxerre, Burgundy, France — Yesterday and Last 2 Weeks

Now
28 °F

Clear.


Feels Like: 23 °F
Forecast: 31 / 48 °F
Wind: 5 mph from Southeast

Location: Troyes Airport

Current Time: Dec 4, 2016 at 7:10:56 am

Latest Report: Dec 4, 2016 at 6:30 am


Visibility: 10 mi

Pressure: 30.12 "Hg

Humidity: 86%

Dew Point: 25 °F

Location of AuxerreLocation

Past Weather in Auxerre — Graph

°F

Auxerre Temperature Yesterday

Maximum temperature yesterday: 43 °F (at 3:00 pm)
Minimum temperature yesterday: 32 °F (at 8:30 pm)
Average temperature yesterday: 36 °F

High & Low Weather Summary for the Past Weeks

 TemperatureHumidityPressure
High66 °F (Nov 21, 2:00 pm)100% (Nov 21, 4:30 pm)30.60 "Hg (Nov 21, 4:30 pm)
Low19 °F (Nov 30, 5:00 am)49% (Nov 29, 3:00 pm)29.36 "Hg (Nov 21, 2:30 pm)
Average42 °F84%30.03 "Hg
* Reported Nov 19 6:00 am — Dec 4 6:00 am, Auxerre, Weather by CustomWeather, © 2016

Note: Actual official high and low records may vary slightly from our data, if they occured in-between our weather recording intervals... More about our weather records

Advertising

Auxerre Weather History for the Previous 24 Hours

Scroll right to see more
 ConditionsComfort  
Time TempWeatherWind HumidityBarometerVisibility
6:00 am
Sun, Dec 4
28 °FClear.6 mph86%30.12 "Hg10 mi
5:30 am30 °FClear.5 mph80%30.12 "Hg10 mi
5:00 am30 °FClear.3 mph80%30.12 "Hg10 mi
4:30 am30 °FClear.3 mph80%30.12 "Hg10 mi
4:00 am30 °FClear.3 mph80%30.12 "Hg10 mi
3:30 am30 °FPassing clouds.3 mph80%30.12 "HgN/A
3:00 am30 °FClear.2 mph80%30.12 "Hg10 mi
2:30 am30 °FClear.5 mph80%30.12 "Hg10 mi
2:00 am30 °FClear.3 mph80%30.12 "Hg10 mi
1:30 am30 °FClear.6 mph86%30.12 "Hg10 mi
1:00 am32 °FClear.8 mph80%30.12 "Hg10 mi
12:30 am32 °FClear.9 mph80%30.12 "Hg10 mi
12:00 am32 °FClear.9 mph80%30.12 "Hg10 mi
11:30 pm
Sat, Dec 3
32 °FClear.8 mph80%30.12 "Hg10 mi
11:00 pm32 °FClear.8 mph80%30.12 "Hg10 mi
10:30 pm34 °FClear.7 mph75%30.15 "Hg10 mi
10:00 pm34 °FClear.7 mph81%30.15 "Hg10 mi
9:30 pm32 °FClear.5 mph93%30.15 "Hg10 mi
9:00 pm34 °FClear.5 mph87%30.15 "Hg6 mi
8:30 pm32 °FClear.3 mph93%30.15 "Hg5 mi
8:00 pm34 °FClear.5 mph87%30.15 "Hg6 mi
7:30 pm34 °FClear.3 mph87%30.15 "Hg10 mi
7:00 pm34 °FClear.5 mph87%30.15 "Hg10 mi
6:30 pm36 °FClear.7 mph87%30.15 "Hg10 mi
6:00 pm36 °FPassing clouds.10 mph87%30.15 "HgN/A
5:30 pm37 °FPassing clouds.10 mph81%30.15 "HgN/A
5:00 pm37 °FOvercast.12 mph87%30.15 "HgN/A
4:30 pm39 °FPartly sunny.9 mph81%30.12 "HgN/A
4:00 pm41 °FPassing clouds.7 mph76%30.12 "HgN/A
3:30 pm41 °FOvercast.9 mph76%30.12 "HgN/A
3:00 pm43 °FPartly sunny.7 mph71%30.12 "HgN/A
2:30 pm41 °FSunny.8 mph76%30.12 "Hg10 mi
2:00 pm41 °FSunny.8 mph76%30.12 "Hg10 mi
1:30 pm39 °FPassing clouds.7 mph81%30.15 "HgN/A
1:00 pm39 °FPassing clouds.9 mph81%30.15 "HgN/A
12:30 pm37 °FOvercast.12 mph87%30.15 "HgN/A
12:00 pm37 °FOvercast.12 mph87%30.15 "HgN/A
11:30 am36 °FPartly sunny.10 mph93%30.18 "HgN/A
11:00 am37 °FPassing clouds.10 mph87%30.18 "HgN/A
10:30 am37 °FPassing clouds.9 mph87%30.15 "HgN/A
10:00 am36 °FPassing clouds.7 mph87%30.15 "HgN/A
9:30 am34 °FSunny.7 mph93%30.15 "Hg10 mi
9:00 am34 °FClear.6 mph100%30.15 "Hg6 mi
8:30 am34 °FClear.7 mph100%30.15 "Hg6 mi
8:00 am34 °FClear.No wind100%30.15 "Hg4 mi
7:30 am36 °FFog.2 mph100%30.15 "Hg3 mi
7:00 am34 °FFog.1 mph100%30.12 "Hg1 mi
Weather by CustomWeather, © 2016

See weather overviewHow to use our weather pages